Flag for United Kingdom Weather past 2 weeks in Sutton Coldfield, England, United Kingdom

Now
63 °F

Scattered clouds.


Feels Like: 63 °F
Forecast: 53 / 64 °F
Wind: 7 mph from Southeast

Location: Birmingham / Airport

Current Time: Oct 2, 2014 at 4:06:54 PM

Latest Report: Oct 2, 2014 at 3:20 PM


Visibility: N/A

Pressure: 30.33 "Hg

Humidity: 73%

Dew point: 54 °F

Location of Sutton ColdfieldLocation

Historic Weather in Sutton Coldfield — Graph

°F

Sutton Coldfield temperature yesterday

Maximum temperature yesterday: 66 °F (at 3:20 PM)
Minimum temperature yesterday: 54 °F (at 7:20 AM)
Average temperature yesterday: 60 °F

Past Weeks' High & Low Weather Summary

 TemperatureHumidityPressure
High73 °F (Sep 18, 3:20 PM)100% (Sep 19, 8:50 AM)30.42 "Hg (Sep 19, 8:50 AM)
Low39 °F (Sep 22, 5:50 AM)46% (Sep 22, 2:50 PM)29.80 "Hg (Sep 18, 3:20 PM)
Average59 °F80%30.12 "Hg
* Reported Sep 17 2:20 PM — Oct 2 2:50 PM, Sutton Coldfield, Weather by CustomWeather, © 2014

Note: Actual official high and low records may vary slightly from our data, if they occured in-between our weather recording intervals... More about our weather records

Advertising

Sutton Coldfield weather history for previous 24 hours

 ConditionsComfort  
Time TempWeatherWind HumidityBarometerVisibility
2:50 PM
Oct 2
64 °FScattered clouds.8 mph73%30.33 "HgN/A
2:20 PM63 °FPassing clouds.5 mph73%30.36 "HgN/A
1:50 PM63 °FPassing clouds.6 mph73%30.36 "HgN/A
1:20 PM61 °FScattered clouds.3 mph77%30.36 "HgN/A
12:50 PM59 °FPartly sunny.5 mph82%30.39 "HgN/A
12:20 PM59 °FPartly sunny.5 mph82%30.39 "HgN/A
11:50 AM59 °FPartly sunny.6 mph77%30.39 "HgN/A
11:20 AM57 °FPartly sunny.2 mph77%30.39 "HgN/A
10:50 AM55 °FBroken clouds.No wind77%30.42 "HgN/A
10:20 AM54 °FPartly sunny.5 mph82%30.42 "HgN/A
9:50 AM54 °FPartly sunny.3 mph77%30.42 "HgN/A
9:20 AM54 °FPartly sunny.3 mph77%30.42 "HgN/A
8:50 AM52 °FPartly sunny.5 mph82%30.42 "HgN/A
8:20 AM52 °FBroken clouds.3 mph82%30.42 "HgN/A
7:50 AM50 °FPassing clouds.3 mph82%30.42 "HgN/A
7:20 AM50 °FPassing clouds.5 mph82%30.42 "HgN/A
6:50 AM50 °FPassing clouds.3 mph82%30.42 "HgN/A
6:20 AM52 °FPassing clouds.2 mph82%30.42 "HgN/A
5:50 AM52 °FPassing clouds.5 mph77%30.39 "HgN/A
5:20 AM52 °FPassing clouds.3 mph82%30.42 "HgN/A
4:50 AM52 °FPassing clouds.2 mph82%30.42 "HgN/A
4:20 AM52 °FPassing clouds.3 mph82%30.42 "HgN/A
3:50 AM52 °FClear.5 mph82%30.42 "Hg10 mi
3:20 AM54 °FPassing clouds.5 mph77%30.42 "HgN/A
2:50 AM54 °FPassing clouds.6 mph77%30.42 "HgN/A
2:20 AM54 °FPassing clouds.7 mph77%30.42 "HgN/A
1:50 AM55 °FPassing clouds.5 mph72%30.39 "HgN/A
1:20 AM55 °FClear.7 mph72%30.39 "Hg10 mi
12:50 AM55 °FPassing clouds.7 mph72%30.39 "HgN/A
12:20 AM55 °FPassing clouds.6 mph77%30.39 "HgN/A
11:50 PM
Oct 1
55 °FPassing clouds.6 mph77%30.39 "HgN/A
11:20 PM55 °FPassing clouds.5 mph82%30.39 "HgN/A
10:50 PM57 °FPassing clouds.6 mph77%30.39 "HgN/A
10:20 PM55 °FPassing clouds.7 mph88%30.36 "HgN/A
9:50 PM57 °FPassing clouds.8 mph88%30.36 "HgN/A
9:20 PM57 °FPassing clouds.8 mph88%30.36 "HgN/A
8:50 PM57 °FPassing clouds.8 mph88%30.36 "HgN/A
8:20 PM57 °FPassing clouds.9 mph88%30.36 "HgN/A
7:50 PM59 °FPassing clouds.10 mph88%30.33 "HgN/A
7:20 PM59 °FPartly sunny.9 mph88%30.33 "HgN/A
6:50 PM59 °FPartly sunny.10 mph88%30.33 "HgN/A
6:20 PM59 °FPartly sunny.10 mph94%30.30 "HgN/A
5:50 PM64 °FLight rain. Broken clouds.6 mph68%30.27 "HgN/A
5:20 PM66 °FScattered showers. Partly sunny.7 mph60%30.27 "HgN/A
4:50 PM66 °FBroken clouds.5 mph64%30.27 "HgN/A
4:20 PM66 °FScattered clouds.8 mph60%30.27 "HgN/A
Weather by CustomWeather, © 2014

See weather overviewHow to use our weather pages